Zurück zum Katalog

STARLINK-11423

AktivKommunikationVLEO
NORAD 61950·PAYLOAD·🇺🇸 United States

Gestartet Nov 14, 2024 von Vandenberg Space Force Base

Loading…

Nächste Überflüge (nächste 24 Stunden)

TLE

AktuellSource: CelesTrak SupGP

Epoche: Sep 15, 2026, 03:08 UTC

1 61950C 24209M   26258.13104167  .00015831  00000+0  13038-3 0  2587
2 61950  53.1568 157.3876 0001140  87.3173 207.2706 15.69707065    14

Verfolge STARLINK-11423 in Echtzeit mit AllMySat

Download on the App Store